Location: Fort Worth, Tx
(32.7431°N, 97.3695°W)
Time: 16:41:21
(UTC-04:00)

Transit 4A - Pass Details

Date: 02 March 2024
Orbit: 871 x 972 km, 66.8° (Epoch: 21 April)

Event Time Altitude Azimuth Distance (km) Brightness Sun altitude
Rises 12:12:07 0° 311° (NW) 3,462 10.5 45.1°
Reaches altitude 10° 12:15:48 10° 288° (WNW) 2,516 10.0 45.5°
Maximum altitude 12:18:44 14° 257° (WSW) 2,219 9.9 45.8°
Drops below altitude 10° 12:21:41 10° 226° (SW) 2,515 10.4 46.1°
Sets 12:25:23 0° 202° (SSW) 3,458 11.3 46.5°
